Regional Weather Roundup
Issued by NWS Sterling, VA

Home | Current Version | Previous Version | Text Only | Print | Product List | Glossary On
Versions: 1 2 3 4 5 6 7 8 9 10 11 12 13 14 15 16 17 18 19 20 21 22 23 24 25 26 27 28 29 30 31 32 33 34 35 36 37 38 39 40 41 42 43 44 45 46 47 48 49 50
000
ASUS41 KLWX 300711
RWRLWX

REGIONAL WEATHER ROUNDUP
NATIONAL WEATHER SERVICE BALTIMORE MD/WASHINGTON DC
300 AM EDT THU MAR 30 2017

Note: "FAIR" indicates few or no clouds below 12,000 feet
with no significant weather and/or obstructions to visibility.
 TC=TEMPERATURE CELSIUS

 * =Non NWS site. Station does not report precipitation (e.g. rain,
    snow, etc.), thunder, or fog.

DCZ001-MDZ009-015-VAZ040>042-051-053>054-300800-
WASHINGTON METRO

CITY           SKY/WX    TMP DP  RH WIND       PRES   REMARKS
WASHINGTON NAT PTCLDY    50  32  50 E9        30.21S
DULLES         PTCLDY    44  32  62 NE6       30.19F
ANDREWS AFB    CLEAR     44  30  57 E9        30.19R
FT BELVOIR     CLEAR     48  30  48 CALM      30.19F
QUANTICO       CLEAR     51  37  58 E6        30.20F
COLLEGE PARK*  CLEAR     43  31  62 CALM      30.21S
LEESBURG*      CLEAR     45  36  70 NE3       30.21F
MANASSAS*      PTCLDY    46  33  60 CALM      30.20

$$

MDZ006>007-011-014-300800-
BALTIMORE METRO

CITY           SKY/WX    TMP DP  RH WIND       PRES   REMARKS
BWI AIRPORT    CLEAR     45  28  51 NE5       30.21R
MD SCIENCE CTR   N/A     48  26  42 MISG      30.21S
MARTIN STATE   CLEAR     45  32  61 CALM      30.23R
ANNAPOLIS      CLEAR     48  31  51 NE3       30.20R
FORT MEADE*    CLEAR     39  30  70 CALM      30.23S

$$

MDZ012-015-019>023-300800-
MARYLAND EASTERN SHORE

CITY           SKY/WX    TMP DP  RH WIND       PRES   REMARKS
OCEAN CITY     CLEAR     45  35  68 NE9       30.18S
SALISBURY      CLEAR     44  32  62 NE6       30.18S
BAY BRIDGE AP* CLEAR     46  28  49 NE5       30.21R
CAMBRIDGE*     CLEAR     41  30  65 CALM      30.20R
EASTON*        CLEAR     44  28  55 E3        30.23R

$$

MDZ017>025-300800-
SOUTHERN MARYLAND

CITY           SKY/WX    TMP DP  RH WIND       PRES   REMARKS
PATUXENT RIVER CLEAR     45  37  73 NE6       30.19F
ST INIGOES     NOT AVBL
LEONARDTOWN*   CLEAR     46  32  57 NE3       30.19F

$$

MDZ003>005-300800-
NORTH CENTRAL MARYLAND

CITY           SKY/WX    TMP DP  RH WIND       PRES   REMARKS
FREDERICK*     CLEAR     37  37 100 CALM      30.24S
HAGERSTOWN APT CLOUDY    44  29  55 NE8       30.20R
WESTMINSTER*   CLEAR     41  28  60 CALM      30.20R

$$

MDZ501>502-300800-
WESTERN MARYLAND

CITY           SKY/WX    TMP DP  RH WIND       PRES   REMARKS
OAKLAND*       NOT AVBL
CUMBERLAND*    CLEAR     46  30  53 CALM      30.21R

$$

VAZ025>031-300800-
SHENANDOAH VALLEY

CITY           SKY/WX    TMP DP  RH WIND       PRES   REMARKS
WINCHESTER*    CLEAR     37  32  81 CALM      30.17F
FRONT ROYAL*   NOT AVBL
LURAY*         PTCLDY    46  37  71 N7        30.16F
NEW MARKET*    NOT AVBL
STAUNTON*      CLOUDY    52  36  54 SE7       30.17S
WAYNESBORO*    CLOUDY    52  38  58 E14G21    30.15S

$$

WVZ021-048>050-054>055-300800-
EASTERN WEST VIRGINIA PANHANDLE

CITY           SKY/WX    TMP DP  RH WIND       PRES   REMARKS
MARTINSBURG    CLEAR     42  33  70 CALM      30.18F
PETERSBURG*    CLEAR     42  39  91 CALM      30.14F

$$

VAZ036>039-050-300800-
CENTRAL FOOTHILLS

CITY           SKY/WX    TMP DP  RH WIND       PRES   REMARKS
CHARLOTTESVILL CLOUDY    52  36  54 E3        30.19R
CULPEPER*      CLEAR     42  38  84 CALM      30.19F
ORANGE*        MOCLDY    41  37  87 CALM      30.21S
GORDONSVILLE*  MOCLDY    44  40  86 CALM      30.18S
WARRENTON*     CLEAR     39  34  82 CALM      30.18F

$$

VAZ055>057-300800-
NORTH AND CENTRAL PIEDMONT

CITY           SKY/WX    TMP DP  RH WIND       PRES   REMARKS
FREDERICKSBRG* CLEAR     49  36  61 NE5       30.18F
STAFFORD*      CLEAR     45  33  63 CALM      30.23S

$$

NCZ024-NYZ072-PAZ021-071-VAZ022-071-300800-
OTHER REGIONAL OBSERVATIONS

CITY           SKY/WX    TMP DP  RH WIND       PRES   REMARKS
NEW YORK CITY  PTCLDY    40  21  46 NE9G17    30.23S
PHILADELPHIA   MOCLDY    42  25  50 NE12      30.20F
PITTSBURGH     PTCLDY    46  30  53 NE9       30.11S
ROANOKE        CLOUDY    59  40  49 E10       30.15S
RICHMOND       CLEAR     47  42  83 CALM      30.18R
RALEIGH        MOCLDY    57  52  83 SE9       30.14R

$$

ANZ530>537-300800-
MARINE OBSERVATIONS

STATION/POSITION TIME  TEMP    WIND        PRES
                       AIR SEA DIR/SP/G
                 (UTC) (F)     (DEG/KT/KT) (MB)
THOMAS PT LIGHT  0700   48 47   50/  7/  8   N/A
BALT KEY BRIDGE  0648           10/  5/  6   N/A
COVE POINT       0648           60/  6/  8   N/A
LEWISETTA        0648           70/  8/ 11   N/A
SOLOMONS ISLAND  0648           30/  5/  7   N/A
PINEY POINT      0648           90/  5/  7   N/A

$$




USA.gov is the U.S. government's official web portal to all federal, state and local government web resources and services.